Showing default

LEMUR 2 SIERRINI, 60579

Orbit data source: Space-Track

LEMUR 2 SIERRINI, 60579 is an American payload satellite in SSO that was launched on Fri, 16 Aug 2024 UTC via an FALCON 9 launch vehicle from the Air Force Western Test Range (AFWTR). Payload-class satellites include a variety of spacecraft equipped with specific instruments for various scientific and technological missions. These include communications satellites like Starlink; space stations such as the ISS; scientific satellites like the Hubble; Earth observation satellites from companies like Planet Labs, Umbra, and HawkEye 360; GPS; miniature CubeSats for education and research; and military/defense satellites.

Loading next visibility...
Identifier
60579, 2024-149DR
Orbit
SSO
Country
Flag of USUS
Related business
Manufacturer
Spire/Glasgow
Mission
Operational Commercial Com/MetRO
Bus & Motor
CUBESAT 3U, Unknown motor
Mass
7.6 kg wet, 7.6 kg dry
Launch date (UTC)
2024-08-16 (2 years ago)
Launch vehicle
FALCON 9
Launch site
Air Force Western Test Range (AFWTR)
Object type
Payload
Rocket body
Debris
Shape & HBR
Box + 2 Pan, 0.5 m
Radar Cross Section
0.063 m², Medium (>0.1 m² and < 1m²)

Expand to show TLE details & history
Last TLE update: 2 days ago

TLE from 2 days ago
0 LEMUR 2 SIERRINI
1 60579U 24149DR  26235.93687406  .00009212  00000-0  53702-3 0  9992
2 60579  97.6817 318.8803 0003465 316.5053  43.5904 15.12205644110691
Epoch: 2026-08-23T22:29Z
TLE epoch observation values (Epoch: 2026-08-23T22:29:05.918Z)
Latitude
0.00002°
Longitude
9.37987°
Altitude
530.813 km
Speed
7.598 km/s
True Right ascension
21h 15m 31s
True Declination
0° 00' 00"
Sunlit
Object was in full shadow at epoch
Visualization orbit readout
Latitude
Unknown
Longitude
Unknown
Altitude
Unknown
Speed
Unknown
Apparent Right ascension
Unknown
Apparent Declination
Unknown
Sunlit
N/A
Visualization observer readout
Local Sidereal Time
02:04:55
Azimuth
Unknown
Elevation
Unknown
Doppler factor
Unknown
Orbital elements
Apogee altitude
528.856 km
Perigee altitude
524.071 km
Semi-major axis
6,904.6 km
Eccentricity
0.00035
Inclination
97.6817°
RAAN
318.8803°
Arg. of periapsis
316.5053°
True anomaly
43.61779°
Mean anomaly
43.5904°
Eccentric anomaly
43.60409°
Mean motion
3.78299 °/min
Orbital period
95.16 mins
BSTAR
0.00053702
Loading maneuver chart data...
Computing Atmospheric mass density...
Loading historical data...
Loading historical data...
Loading historical data...
Loading historical data...
Loading historical data...
Loading historical data...
Loading historical data...

Documentation

Showing up to 5 results
|